[[{"header":{"parameterUnit":"m.s-1","parameterCategory":1,"la1":30.2991,"la2":30.254,"lo1":-89.0895,"lo2":-89.0444,"dy":0.0017,"dx":0.0017,"nx":28,"ny":28,"refTime":"2025-07-26T21:00:00:Z","depth":0,"parameterNumber":2,"parameterNumberName":"U-component_of_WINDS"},"data":[0,0,0,0,0,0,0,0,0,0,0,0,0,0,0,0,0,0,0,0,0,0,0,0,0,0,0,0,0,0,0,0,0,0,0,0,0,0,0,0,0,0,0,0,0,0,0,0,0,0,0,0,0,0,0,0,0,0,2.5638,2.5638,0,2.5647,2.5647,2.5647,2.5581,2.5579,2.5578,2.5576,2.5584,2.5586,2.5588,0,0,0,0,0,0,0,0,0,0,0,0,0,2.5565,2.5566,2.5638,2.5638,2.5638,2.5647,2.5647,2.5647,2.5582,2.5579,2.5577,2.5575,2.5583,2.5586,2.5588,0,0,0,0,0,0,0,0,0,0,0,0,0,2.5587,2.5567,2.5638,2.5606,2.5604,2.5647,2.5647,2.5647,2.5582,2.5579,2.5577,2.5574,2.5583,2.5585,2.5588,2.5661,0,0,2.5597,2.5598,0,0,0,0,0,0,0,0,2.5586,2.559,2.5611,2.5609,2.5606,2.561,2.5624,2.5652,2.5583,2.559,2.5576,2.5573,2.5595,2.5597,2.5604,2.5661,2.5662,2.5597,2.5599,2.56,2.5601,0,0,0,0,0,0,0,2.5584,2.5589,2.5641,2.5611,2.5608,2.5592,2.5592,2.5629,2.5608,2.5589,2.5585,2.5587,2.5593,2.5602,2.5604,2.5662,2.5597,2.56,2.5602,2.5603,2.5781,2.5784,0,0,0,0,0,0,2.5587,2.5588,2.5641,2.5641,2.5589,2.5596,2.5596,2.5611,2.5607,2.5604,2.5589,2.5584,2.5598,2.5601,2.5604,2.569,2.56,2.5603,2.5605,2.5778,2.5782,2.5785,0,0,0,0,0,0,2.5586,2.5592,2.564,2.5614,2.5618,2.56,2.5618,2.5613,2.5622,2.5607,2.5603,2.5602,2.5596,2.56,2.5648,2.5689,2.5604,2.5607,2.5775,2.5779,2.5784,2.5862,0,0,0,0,0,0,2.5584,2.5592,2.562,2.5615,2.562,2.5684,2.562,2.5615,2.5627,2.562,2.5618,2.5615,2.5594,2.5644,2.5651,2.5692,2.5609,2.5771,2.5777,2.5782,2.5855,2.5868,2.588,0,0,0,0,0,2.5582,2.5641,2.5621,2.5628,2.5654,2.5687,2.569,2.5665,2.563,2.5658,2.5649,2.5615,2.5684,2.5649,2.5656,2.5699,2.5768,2.5775,2.5782,2.585,2.5866,2.5879,0,0,0,0,0,0,2.565,2.5639,2.5618,2.5677,2.5684,2.5676,2.5709,2.5682,2.5698,2.5691,2.5659,2.566,2.5713,2.5711,2.5673,2.577,2.572,2.5728,2.5769,2.5784,2.5796,2.5796,2.5612,0,0,0,0,0,2.5672,2.57,2.5689,2.5742,2.5747,2.5728,2.5741,2.5722,2.5727,2.5729,2.5723,2.573,2.5753,2.5768,2.5789,2.5855,2.5854,2.5888,2.59,2.591,2.5918,2.5954,2.5969,2.5807,2.5807,2.5807,0,0,2.5717,2.5715,2.5734,2.5756,2.5759,2.5788,2.573,2.5764,2.5786,2.5734,2.5779,2.5776,2.5781,2.5839,2.5864,2.5838,2.5962,2.5919,2.5927,2.5929,2.5962,2.5978,2.5991,2.5812,2.5811,2.581,0,0,2.5816,2.5817,2.5862,2.5866,2.5872,2.5859,2.587,2.5867,2.5863,2.5908,2.5871,2.5896,2.5936,2.5942,2.595,2.6053,2.6023,2.6061,2.6124,2.6159,2.6172,2.6183,2.6221,2.6234,2.6068,2.6069,2.6069,0,2.5871,2.5915,2.5888,2.5925,2.5936,2.5892,2.5938,2.5943,2.5955,2.5964,2.5935,2.5986,2.5986,2.6045,2.6071,2.6079,2.6091,2.606,2.6172,2.6183,2.6193,2.6229,2.6243,2.6073,2.6073,2.6072,2.6072,0,2.5984,2.6014,2.605,2.6064,2.6079,2.612,2.61,2.6119,2.6099,2.609,2.6137,2.6136,2.6156,2.6169,2.6149,2.6226,2.621,2.6178,2.6127,2.6214,2.6247,2.626,2.608,2.6078,2.6077,2.6076,0,0,2.6123,2.6123,2.6137,2.6143,2.6147,2.617,2.621,2.6231,2.6248,2.6258,2.6291,2.6327,2.6298,2.6307,2.6288,2.6319,2.6402,2.6283,2.6282,2.6305,2.6488,2.6512,2.6528,2.6383,2.6385,2.6387,2.6488,0,2.6219,2.6287,2.6266,2.6335,2.6364,2.6324,2.6358,2.6365,2.6358,2.6381,2.6373,2.64,2.6358,2.6364,2.6393,2.6386,2.6438,2.6378,2.6413,2.6415,2.6413,2.6545,2.6571,2.6666,2.65,2.6502,2.6504,0,2.634,2.6357,2.6429,2.643,2.6441,2.6472,2.649,2.6513,2.652,2.6513,2.6525,2.65,2.6539,2.6489,2.6544,2.6503,2.6517,2.6515,2.6518,2.652,2.6464,2.6551,2.6695,2.671,2.6524,2.6522,2.6521,0,2.6436,2.6476,2.6524,2.6531,2.6533,2.6556,2.6558,2.6562,2.6577,2.6593,2.6602,2.6622,2.6633,2.6649,2.6631,2.6596,2.6689,2.6636,2.6684,2.6684,2.6704,2.6703,2.6853,2.6713,2.6713,2.6713,2.6713,0,2.6545,2.6591,2.6567,2.6597,2.6648,2.6624,2.6674,2.6671,2.6676,2.6705,2.6672,2.67,2.6673,2.6699,2.6685,2.6733,2.6738,2.6733,2.6729,2.6736,2.6737,2.6744,2.6737,2.6717,2.6716,2.6715,2.6715,0,2.666,2.6646,2.6696,2.6695,2.6696,2.6733,2.6732,2.676,2.6751,2.6788,2.6796,2.6782,2.6811,2.6794,2.6823,2.6814,2.6876,2.6863,2.6874,2.6871,2.6919,2.6915,2.7078,2.7099,2.6946,2.6948,2.6949,0,2.673,2.6765,2.6768,2.6786,2.679,2.6818,2.6833,2.6811,2.6828,2.684,2.6867,2.6893,2.6912,2.6961,2.6953,2.6976,2.6963,2.7019,2.6966,2.6973,2.6964,2.6962,2.6966,2.7029,2.7031,2.7032,2.7033,0,2.6858,2.685,2.6873,2.6895,2.6914,2.6929,2.6942,2.6958,2.6936,2.6957,2.6987,2.7002,2.7033,2.706,2.708,2.7081,2.7054,2.705,2.7063,2.707,2.7076,2.7074,2.6903,2.7046,2.7045,2.7044,2.7043,2.7043,2.6953,2.6982,2.6989,2.7017,2.7025,2.7038,2.7064,2.706,2.7085,2.7108,2.7094,2.7129,2.7137,2.716,2.7166,2.7193,2.7171,2.7189,2.7193,2.7198,2.7205,2.7072,2.7197,2.7197,2.7196,2.7196,2.7196,0,2.7078,2.7082,2.7107,2.7127,2.7149,2.7123,2.7136,2.7156,2.7188,2.7198,2.7218,2.7253,2.7279,2.7275,2.7299,2.7322,2.731,2.7329,2.7327,2.7328,2.7223,2.721,2.7338,2.7338,2.7338,2.7338,2.7338,2.7338,2.7146,2.7195,2.7189,2.7242,2.7244,2.7279,2.7289,2.7302,2.7309,2.735,2.7372,2.737,2.7374,2.7399,2.7422,2.742,2.743,2.7454,2.7448,2.7349,2.7335,2.7322,2.731,2.7456,2.7457,2.755,2.7551,2.7552]},{"header":{"parameterUnit":"m.s-1","parameterCategory":1,"la1":30.2991,"la2":30.254,"lo1":-89.0895,"lo2":-89.0444,"dy":0.0017,"dx":0.0017,"nx":28,"ny":28,"refTime":"2025-07-26T21:00:00:Z","depth":0,"parameterNumber":3,"parameterNumberName":"V-component_of_WINDS"},"data":[0,0,0,0,0,0,0,0,0,0,0,0,0,0,0,0,0,0,0,0,0,0,0,0,0,0,0,0,0,0,0,0,0,0,0,0,0,0,0,0,0,0,0,0,0,0,0,0,0,0,0,0,0,0,0,0,0,0,-3.5414,-3.5415,0,-3.5524,-3.5525,-3.5527,-3.5498,-3.5496,-3.5494,-3.5492,-3.5604,-3.5609,-3.5614,0,0,0,0,0,0,0,0,0,0,0,0,0,-3.5177,-3.5182,-3.5413,-3.5415,-3.5416,-3.5524,-3.5526,-3.5527,-3.5498,-3.5496,-3.5493,-3.5491,-3.5602,-3.5608,-3.5614,0,0,0,0,0,0,0,0,0,0,0,0,0,-3.5283,-3.5183,-3.5413,-3.5415,-3.5416,-3.5524,-3.5526,-3.5527,-3.5499,-3.5496,-3.5492,-3.5489,-3.56,-3.5608,-3.5615,-3.5727,0,0,-3.5638,-3.5641,0,0,0,0,0,0,0,0,-3.5277,-3.5292,-3.5413,-3.5415,-3.5417,-3.5494,-3.5483,-3.5594,-3.55,-3.5468,-3.5492,-3.5488,-3.557,-3.558,-3.5608,-3.5732,-3.5737,-3.5639,-3.5643,-3.5647,-3.5649,0,0,0,0,0,0,0,-3.527,-3.5287,-3.5457,-3.5415,-3.5417,-3.541,-3.5422,-3.5504,-3.5536,-3.547,-3.5468,-3.5482,-3.557,-3.56,-3.561,-3.5739,-3.5639,-3.5645,-3.565,-3.5653,-3.5963,-3.5966,0,0,0,0,0,0,-3.5261,-3.5281,-3.5454,-3.546,-3.5337,-3.5417,-3.543,-3.5472,-3.5535,-3.5541,-3.5485,-3.548,-3.5589,-3.5601,-3.5614,-3.575,-3.5646,-3.5654,-3.5658,-3.5959,-3.5964,-3.5968,0,0,0,0,0,0,-3.5256,-3.5277,-3.5449,-3.537,-3.5392,-3.5425,-3.5473,-3.5476,-3.5507,-3.5546,-3.5551,-3.551,-3.5587,-3.5603,-3.57,-3.5754,-3.5657,-3.5664,-3.5955,-3.596,-3.5966,-3.6023,0,0,0,0,0,0,-3.5249,-3.5275,-3.5318,-3.5371,-3.5396,-3.5533,-3.5476,-3.5481,-3.552,-3.5515,-3.5571,-3.5577,-3.5586,-3.5689,-3.5707,-3.5762,-3.567,-3.595,-3.5957,-3.5964,-3.6017,-3.603,-3.6042,0,0,0,0,0,-3.5241,-3.5329,-3.532,-3.5341,-3.545,-3.5536,-3.555,-3.5559,-3.5524,-3.5568,-3.5593,-3.5575,-3.5745,-3.5699,-3.5719,-3.5778,-3.5947,-3.5955,-3.5963,-3.6011,-3.6027,-3.6041,0,0,0,0,0,0,-3.5281,-3.5336,-3.5327,-3.5435,-3.5482,-3.5531,-3.5586,-3.5576,-3.5633,-3.5626,-3.5634,-3.5647,-3.5746,-3.5771,-3.5719,-3.589,-3.5841,-3.5853,-3.587,-3.5886,-3.5898,-3.589,-3.5676,0,0,0,0,0,-3.5302,-3.5368,-3.5413,-3.5504,-3.5528,-3.5553,-3.5591,-3.5594,-3.5642,-3.5661,-3.5693,-3.5741,-3.5805,-3.5847,-3.5907,-3.602,-3.6032,-3.6071,-3.6083,-3.6093,-3.6104,-3.6167,-3.6185,-3.5995,-3.5995,-3.5995,0,0,-3.5347,-3.5386,-3.5426,-3.5513,-3.5549,-3.5617,-3.557,-3.5643,-3.5693,-3.5672,-3.5766,-3.5791,-3.5844,-3.595,-3.5998,-3.5974,-3.6159,-3.6104,-3.6112,-3.6117,-3.6177,-3.6195,-3.6211,-3.6001,-3.6,-3.5999,0,0,-3.5463,-3.5499,-3.5579,-3.5617,-3.5672,-3.5689,-3.5709,-3.5761,-3.5777,-3.5871,-3.5857,-3.5917,-3.6027,-3.6066,-3.61,-3.6232,-3.6218,-3.6252,-3.6317,-3.6378,-3.6393,-3.6406,-3.6454,-3.6471,-3.6263,-3.6263,-3.6263,0,-3.5512,-3.5614,-3.5622,-3.5697,-3.5736,-3.5721,-3.5802,-3.5838,-3.5911,-3.5938,-3.591,-3.6049,-3.6084,-3.6198,-3.6231,-3.6259,-3.6282,-3.6246,-3.639,-3.6404,-3.6416,-3.6462,-3.648,-3.6267,-3.6266,-3.6266,-3.6266,0,-3.5671,-3.5742,-3.58,-3.5871,-3.5917,-3.5995,-3.6015,-3.606,-3.6059,-3.6079,-3.6175,-3.6217,-3.6286,-3.6314,-3.6313,-3.6429,-3.6413,-3.6388,-3.6338,-3.6438,-3.6481,-3.6499,-3.6272,-3.6271,-3.627,-3.6269,0,0,-3.5815,-3.5891,-3.5912,-3.5945,-3.6005,-3.606,-3.6138,-3.6207,-3.6246,-3.6296,-3.6362,-3.6456,-3.6434,-3.6473,-3.6477,-3.653,-3.6634,-3.6499,-3.65,-3.6523,-3.6765,-3.6784,-3.6804,-3.6625,-3.6628,-3.6631,-3.6761,0,-3.5937,-3.6074,-3.6084,-3.6208,-3.6274,-3.6261,-3.6329,-3.6373,-3.6394,-3.6453,-3.6476,-3.6543,-3.6508,-3.6532,-3.6584,-3.661,-3.6683,-3.6601,-3.6686,-3.6689,-3.6674,-3.6827,-3.6846,-3.6967,-3.6778,-3.6781,-3.6783,0,-3.6097,-3.6154,-3.6285,-3.6337,-3.6365,-3.6426,-3.6491,-3.6547,-3.6598,-3.6609,-3.6654,-3.6651,-3.6731,-3.6679,-3.679,-3.6734,-3.677,-3.6788,-3.6793,-3.6801,-3.6742,-3.684,-3.7005,-3.7024,-3.6809,-3.6807,-3.6805,0,-3.619,-3.6299,-3.6391,-3.642,-3.6483,-3.6526,-3.6555,-3.6603,-3.6644,-3.67,-3.6727,-3.6792,-3.6827,-3.6878,-3.6893,-3.6853,-3.7004,-3.6952,-3.7016,-3.7016,-3.7048,-3.7046,-3.7222,-3.707,-3.707,-3.707,-3.7069,0,-3.6325,-3.6406,-3.6434,-3.6491,-3.6581,-3.6592,-3.6681,-3.6707,-3.675,-3.6812,-3.6804,-3.6863,-3.6879,-3.694,-3.6952,-3.7043,-3.7059,-3.707,-3.7073,-3.7072,-3.707,-3.7095,-3.7087,-3.7075,-3.7074,-3.7073,-3.7072,0,-3.6444,-3.6466,-3.6566,-3.6618,-3.6634,-3.6698,-3.6743,-3.6798,-3.6818,-3.6897,-3.6916,-3.6947,-3.7019,-3.7039,-3.7125,-3.7133,-3.724,-3.7235,-3.7223,-3.7224,-3.7286,-3.728,-3.7485,-3.7513,-3.7342,-3.7344,-3.7345,0,-3.6529,-3.6591,-3.665,-3.6692,-3.6722,-3.6789,-3.6831,-3.6845,-3.6889,-3.6952,-3.7,-3.7071,-3.7129,-3.7245,-3.7275,-3.7341,-3.7338,-3.7405,-3.7347,-3.7345,-3.734,-3.7336,-3.7343,-3.7416,-3.7418,-3.7419,-3.742,0,-3.6678,-3.6686,-3.6747,-3.6813,-3.6864,-3.6916,-3.6967,-3.7001,-3.7022,-3.7072,-3.7146,-3.7191,-3.728,-3.7351,-3.7418,-3.7447,-3.7438,-3.7438,-3.7457,-3.7456,-3.7447,-3.7454,-3.7254,-3.7433,-3.7432,-3.7431,-3.743,-3.743,-3.6783,-3.6838,-3.6889,-3.6958,-3.6997,-3.7045,-3.7099,-3.7127,-3.7189,-3.7262,-3.7266,-3.7347,-3.7397,-3.7487,-3.752,-3.7583,-3.7563,-3.759,-3.7596,-3.7603,-3.7609,-3.7437,-3.7596,-3.7595,-3.7595,-3.7595,-3.7594,0,-3.6933,-3.6965,-3.7028,-3.7099,-3.7154,-3.714,-3.7196,-3.7242,-3.7313,-3.7361,-3.7419,-3.7504,-3.7573,-3.761,-3.7679,-3.7723,-3.772,-3.7741,-3.7738,-3.7745,-3.7622,-3.76,-3.7741,-3.7741,-3.7741,-3.7741,-3.7741,-3.7741,-3.7017,-3.7109,-3.7123,-3.7236,-3.7267,-3.7347,-3.7379,-3.7423,-3.7462,-3.7558,-3.7616,-3.7639,-3.7683,-3.7756,-3.7819,-3.7828,-3.7854,-3.7877,-3.7883,-3.7768,-3.7753,-3.7739,-3.7718,-3.7882,-3.7882,-3.8001,-3.8002,-3.8003]}]]